Tracking 23764 objects as of 17-Oct-2021
HD Live streaming from Space Station
objects crossing your sky now

IRIDIUM 33 DEB

Track IRIDIUM 33 DEB now!
10-day predictions


NORAD ID: 33874
Int'l Code: 1997-051AT
Perigee: 737.2 km
Apogee: 829.4 km
Inclination: 86.3 °
Period: 100.4 minutes
Semi major axis: 7154 km
RCS: 0.1107 m2 (medium)
Launch date: September 14, 1997
Source: United States (US)
Launch site: TYURATAM MISSILE AND SPACE COMPLEX (TTMTR)

Note: This is SATELLITE DEBRIS
aabbcc
Your satellite tracking list
Your tracking list is empty




NASA's NSSDC Master Catalog

Two Line Element Set (TLE):
1 33874U 97051AT  21289.55475024  .00002323  00000-0  79583-3 0  9996
2 33874  86.2890 319.2609 0064450 329.7881 142.5223 14.34680504659348
Source of the keplerian elements: AFSPC